x

North Huron - 32nm Northeast Of Alpena, Mi (45003) Wave Buoy

7:50am - Thu 25th Aug 2016 All times are CDT. -5 hours from GMT.

  • Sig Wave height 1.6ft
  • Swell Direction
  • Peak Period 6s
  • Average Period 3s
  • Wind
    7mph
  • Sea Temp 66°f
  • Air Temp 68°f
  • Sea Pressure 1011.9mb
  • North Huron - 32nm Northeast Of Alpena, Mi
  • North Huron - 32nm Northeast Of Alpena, Mi

More Historic Weather Station data

Upgrade to MSW Pro to gain access to the past 30 days of data for over 8000 Wavebouys and Weather Stations around the globe.

Join Pro

Comparision Forecast

View Surf forecast
   
Thu 08/25 7:50am 1.6ft 6s 3s 7
mph
1011.9mb 66f 68f
6:50am 2ft 5s 4s 9 11 mph 1011.7mb 66f 69f
5:50am 2ft 5s 4s 9 11 mph 1011.5mb 66f 69f
4:50am 2ft 5s 4s 9
mph
1011.1mb 66f 69f
3:50am 2ft 5s 4s 9
mph
1010.8mb 66f 69f
2:50am 2.5ft 6s 4s 9 11 mph 1010.3mb 66f 69f
1:50am 2.5ft 5s 4s 7 9 mph 1010mb 66f 70f
12:50am 2.5ft 6s 4s 7 9 mph 1010.1mb 66f 70f
Wed 08/24 11:50pm 3.5ft 6s 5s 11
mph
1010.2mb 67f 71f
9:50pm 4ft 6s 5s 18 20 mph 1010.5mb 67f 72f
8:50pm 4.5ft 6s 5s 16 20 mph 1010.4mb 68f 72f
7:50pm 4.5ft 6s 5s 18 20 mph 1010mb 69f 72f
6:50pm 4.5ft 6s 5s 16 18 mph 1010.4mb 69f 73f
5:50pm 5ft 7s 5s 16 18 mph 1010.5mb 69f 73f
4:50pm 5ft 6s 5s 16 18 mph 1010.9mb 69f 72f
3:50pm 5.5ft 6s 5s 20 25 mph 1011.1mb 69f 72f
2:50pm 5ft 6s 5s 20 25 mph 1011.8mb 68f 73f
1:50pm 5ft 6s 4s 25 31 mph 1011.6mb 68f 72f
12:50pm 4.5ft 5s 4s 25 31 mph 1012.4mb 68f 72f
11:50am 3.5ft 5s 4s 27 31 mph 1013.3mb 68f 71f
10:50am 2.5ft 4s 4s 22 27 mph 1014.7mb 67f 71f
9:50am 2.5ft 4s 4s 18 22 mph 1015.2mb 67f 71f
8:50am 2.5ft 4s 3s 18 20 mph 1016.4mb 67f 71f
7:50am 2ft 4s 3s 16 20 mph 1017.1mb 67f 71f
6:50am 2ft 4s 4s 16 20 mph 1017.5mb 67f 71f
5:50am 2ft 4s 4s 13 18 mph 1018.1mb 67f 70f
4:50am 2ft 4s 3s 16 18 mph 1018.6mb 67f 70f
3:50am 2ft 4s 4s 13 18 mph 1018mb 67f 70f
2:50am 2ft 5s 4s 13 16 mph 1018.2mb 67f 70f
1:50am 2.5ft 5s 4s 13 16 mph 1018mb 67f 71f
12:50am 2.5ft 5s 4s 13 16 mph 1018.2mb 68f 71f
Tue 08/23 11:50pm 2.5ft 5s 4s 16 18 mph 1018.4mb 68f 72f
10:50pm 3ft 4s 4s 18 20 mph 1018.8mb 68f 72f
9:50pm 3ft 5s 4s 18 20 mph 1019.3mb 68f 73f
8:50pm 3.5ft 5s 4s 18 20 mph 1019.2mb 68f 73f
7:50pm 4ft 6s 4s 20 22 mph 1018.8mb 68f 73f
6:50pm 4.5ft 6s 4s 20 25 mph 1018.4mb 68f 73f
5:50pm 4ft 5s 4s 20 25 mph 1018.1mb 68f 73f
4:50pm 3.5ft 5s 4s 20 22 mph 1018.5mb 68f 73f
3:50pm 3ft 5s 4s 20 22 mph 1018.6mb 69f 72f
2:50pm 2.5ft 4s 4s 18 22 mph 1019.1mb 69f 72f
1:50pm 2.5ft 4s 3s 18 22 mph 1019.7mb 69f 71f
12:50pm 2.5ft 4s 3s 18 22 mph 1020.1mb 69f 71f
11:50am 2ft 3s 4s 16 18 mph 1020mb 69f 70f
10:50am 2ft 4s 3s 16 18 mph 1020.3mb 69f 69f
9:50am 2ft 3s 3s 18 20 mph 1020.2mb 69f 69f
8:50am 2.5ft 4s 3s 18 20 mph 1020.3mb 69f 69f
7:50am 2.5ft 4s 4s 16 20 mph 1020.2mb 69f 69f
6:50am 2.5ft 4s 4s 13 16 mph 1020mb 69f 69f
5:50am 2.5ft 5s 4s 11 16 mph 1019.6mb 69f 69f
4:50am 3ft 4s 4s 18 20 mph 1019.5mb 69f 69f
3:50am 3ft 5s 4s 18 22 mph 1019.4mb 69f 69f
2:50am 2.5ft 5s 4s 20 25 mph 1019.1mb 69f 69f
1:50am 2.5ft 5s 4s 18 22 mph 1019.3mb 69f 70f
12:50am 2.5ft 5s 4s 18 20 mph 1019.4mb 70f 70f
Mon 08/22 11:50pm 3.5ft 5s 4s 20 25 mph 1019.1mb 70f 71f
10:50pm 3.5ft 5s 4s 20 22 mph 1019.1mb 70f 71f
9:50pm 3.5ft 4s 4s 20 25 mph 1018.4mb 70f 70f
8:50pm 2.5ft 5s 4s 20 25 mph 1018.6mb 70f 70f
7:50pm 3ft 4s 4s 20 25 mph 1018.4mb 70f 69f
6:50pm 2.5ft 4s 3s 20 25 mph 1018.7mb 71f 69f
5:50pm 1.3ft 3s 3s 18 22 mph 1018.9mb 71f 69f
4:50pm 1ft 2s 3s 16 18 mph 1019.2mb 71f 69f
3:50pm 1.3ft 4s 3s 13 16 mph 1019.6mb 71f 68f
2:50pm 1.3ft 4s 3s 9 11 mph 1019.9mb 70f 68f
1:50pm 1.6ft 4s 4s 7 9 mph 1020.4mb 70f 68f
12:50pm 1.6ft 4s 4s 11 13 mph 1020.2mb 70f 67f
11:50am 1.6ft 4s 4s 11 13 mph 1020.3mb 70f 66f
10:50am 2ft 4s 4s 11 13 mph 1020.1mb 70f 66f
9:50am 2ft 4s 4s 13 16 mph 1019.7mb 70f 65f
8:50am 2.5ft 4s 4s 16 18 mph 1019.1mb 70f 65f
7:50am 2.5ft 4s 4s 18 20 mph 1018.6mb 70f 65f
6:50am 2ft 4s 3s 20 22 mph 1017.9mb 70f 65f
5:50am 1.3ft 4s 3s 16 18 mph 1017.3mb 70f 65f
4:50am 1.6ft 4s 3s 13 16 mph 1016.8mb 70f 65f
3:50am 2ft 4s 3s 13 18 mph 1016.9mb 70f 64f
2:50am 2ft 4s 3s 16 20 mph 1016mb 70f 64f
1:50am 2.5ft 4s 3s 16 20 mph 1015.7mb 70f 63f
12:50am 2.5ft 4s 4s 18 22 mph 1015.4mb 70f 64f
Sun 08/21 11:50pm 2.5ft 5s 4s 16 18 mph 1014.9mb 70f 64f
9:50pm 3.5ft 6s 4s 13 18 mph 1013.8mb 70f 65f
8:50pm 3.5ft 6s 4s 16 20 mph 1013.2mb 70f 65f
7:50pm 4ft 6s 5s 18 20 mph 1012.3mb 70f 65f
6:50pm 4.5ft 6s 5s 20 22 mph 1011.6mb 70f 65f
5:50pm 5ft 7s 5s 20 25 mph 1010.9mb 70f 65f
4:50pm 5.5ft 7s 5s 22 27 mph 1009.9mb 70f 65f
3:50pm 6.5ft 7s 5s 25 31 mph 1008.8mb 70f 65f
2:50pm 7.5ft 7s 5s 27 34 mph 1007.9mb 70f 65f
1:50pm 7.5ft 8s 6s 29 34 mph 1006.7mb 71f 65f